User: anonymous   Login
Location: Oshawa
(43.9000°N, 78.8670°W)
Time: 18:17:57
(UTC-05:00)
Language:

Cosmos 1408 Rocket - Orbit

View from above orbital plane
View from above orbital plane
View from above satellite
View from above satellite

Ground track
Ground track

The orbit data is extracted from the following two-line orbital elements,

1 13553U 82092B   17024.07056854  .00000084  00000-0  70593-5 0  9998
2 13553  82.5685   8.3473 0021992 157.1967 270.3292 14.84102282855664
Epoch (UTC): 24 January 2017 01:41:37
Eccentricity: 0.0021992
inclination: 82.5685°
perigee height: 601 km
apogee height: 632 km
right ascension of ascending node: 8.3473°
argument of perigee: 157.1967°
revolutions per day: 14.84102282
mean anomaly at epoch: 270.3292°
orbit number at epoch: 85566

The dashed part of the orbit path shows where the satellite is in the earth's shadow,  

DLR